Regional Weather Roundup
Issued by NWS

Home | Current Version | Previous Version | Text Only | Print | Product List | Glossary On
Versions: 1 2 3 4 5 6 7 8 9 10 11 12 13 14 15 16 17 18 19 20 21 22 23 24 25 26 27 28 29 30 31 32 33 34 35 36 37 38 39 40 41 42 43 44 45 46 47 48 49 50
000
ASUS43 KDTX 190701
RWRMI
MICHIGAN HOURLY REGIONAL WEATHER ROUNDUP
NATIONAL WEATHER SERVICE DETROIT/PONTIAC MI
200 AM EST SUN NOV 19 2017

NOTE: "FAIR" INDICATES FEW OR NO CLOUDS BELOW 12,000 FEET WITH NO
SIGNIFICANT WEATHER AND/OR OBSTRUCTION TO VISIBILITY.

MIZ047>049-052>055-059>063-066>070-074>076-081>083-190800-
SOUTHEAST LOWER MICHIGAN

CITY           SKY/WX    TMP DP  RH WIND       PRES   REMARKS
ADRIAN         CLOUDY    38  30  73 NW16G25   29.66R WCI  29
ALMA           CLOUDY    35  33  92 NW12      29.66R WCI  27
ANN ARBOR      CLOUDY    38  31  76 W16G36    29.62R WCI  29
BAD AXE        CLOUDY    36  33  88 NW15G22   29.55R WCI  26
CARO           CLOUDY    37  30  77 NW20G28   29.59R WCI  26
DETROIT CITY   CLOUDY    48  32  53 NW17G28   29.57R
DETROIT        CLOUDY    39  30  70 NW18G32   29.59R WCI  30
FLINT          CLOUDY    37  30  75 NW20G32   29.62R WCI  27
GROSSE ILE     CLOUDY    39  32  75 NW17G28   29.58R WCI  30
HILLSDALE      CLOUDY    36  30  80 W17       29.66R WCI  25
HOWELL         CLOUDY    36  32  86 NW17G26   29.63R WCI  26

CITY           SKY/WX    TMP DP  RH WIND       PRES   REMARKS
JACKSON        CLOUDY    37  30  75 W20       29.67R WCI  27
LAMBERTVILLE   CLOUDY    41  32  69 NW8G20    29.64R
LANSING        CLOUDY    34  31  88 NW13G23   29.68R WCI  25
LAPEER         CLOUDY    36  32  84 NW14G23   29.58R WCI  27
MASON          CLOUDY    38  30  72 NW12G26   29.66R WCI  31
MONROE         CLOUDY    40  29  64 NW18G26   29.61R WCI  31
MT. CLEMENS    CLOUDY    38  35  87 NW15G26   29.53R WCI  30
PONTIAC        CLOUDY    37  29  72 NW17G38   29.57R WCI  27
PORT HOPE        N/A     39  32  76 NW23G36   29.50R WCI  28
PORT HURON     CLOUDY    37  32  81 NW18G31   29.52R WCI  27
TRI CITIES     CLOUDY    37  31  78 NW14      29.63R WCI  28
MIDLAND        CLOUDY    37  29  74 NW10G18   29.62R WCI  29
TROY           CLOUDY    40  33  76 NW14G24   29.59R WCI  32
SAGINAW HB     CLOUDY    36  32  87 NW12      29.61R WCI  27
$$
MIZ043>046-050>051-056>058-064>065-071>073-077>080-190800-
SOUTHWEST LOWER MICHIGAN

CITY           SKY/WX    TMP DP  RH WIND       PRES   REMARKS
BATTLE CREEK   CLOUDY    37  30  75 NW14      29.71R WCI  28
BENTON HARBOR  CLOUDY    40  29  64 NW13G23   29.79R WCI  32
BIG RAPIDS     CLOUDY    33  29  85 NW9G16    29.69R WCI  25
COLDWATER      CLOUDY    37  32  79 NW14G22   29.71R WCI  29
FREMONT        CLOUDY    34  30  86 NW13G25   29.73R WCI  25
HOLLAND        CLOUDY    38  30  73 NW15G23   29.76R WCI  29
GRAND RAPIDS   CLOUDY    36  31  82 NW18G29   29.72R WCI  26
IONIA          CLOUDY    36  30  80 W15G23    29.68R WCI  26
KALAMAZOO      LGT RAIN  38  29  70 NW21G26   29.73R WCI  28
LUDINGTON      CLOUDY    35  28  76 N10G17    29.74S WCI  27
MARSHALL       CLOUDY    36  31  82 NW14G20   29.70R WCI  27
MOUNT PLEASANT CLOUDY    36  30  77 W13G18    29.64R WCI  28
MUSKEGON       LGT SNOW  34  30  85 NW14      29.76R FOG     WCI  25
SOUTH HAVEN    CLOUDY    40  31  71 N12G20    29.77R WCI  32
$$
MIZ016>042-190800-
NORTHERN LOWER MICHIGAN

CITY           SKY/WX    TMP DP  RH WIND       PRES   REMARKS
ALPENA         MIX PCPN  36  29  75 NW13G22   29.56R WCI  27
BEAVER ISLAND  CLOUDY    32  27  80 NW14G25   29.69R WCI  22
BELLAIRE       CLOUDY    35  29  79 NW9G17    29.68R WCI  27
CADILLAC       CLOUDY    32  27  81 NW13G24   29.66R WCI  22
CHARLEVOIX     CLOUDY    35  28  76 NW21G29   29.69S WCI  23
FRANKFORT      CLOUDY    35  29  80 NW12G22   29.73R WCI  27
GAYLORD        MOCLDY    30  25  81 NW9G16    29.60R WCI  22
GRAYLING       CLOUDY    32  27  83 NW15G25   29.63R WCI  22
HARBOR SPRINGS CLOUDY    32  28  84 NW12      29.65R WCI  23
MANISTEE       LGT RAIN  35  28  75 NW10G21   29.74R WCI  27
OSCODA         CLOUDY    35  31  85 NW15      29.55R WCI  25
PELLSTON       CLOUDY    34  25  69 NW13G21   29.64R WCI  25
ROGERS CITY    CLOUDY    35  28  75 NW17G23   29.59R WCI  25
TRAVERSE CITY  CLOUDY    34  29  82 NW10      29.69R WCI  26
$$
MIZ007>008-015-190800-
EASTERN UPPER MICHIGAN

CITY           SKY/WX    TMP DP  RH WIND       PRES   REMARKS
KINROSS        CLOUDY    32  26  78 N14G23    29.61R WCI  22
MACKINAC ISLAN CLOUDY    33  26  72 NW18G29   29.62R WCI  22
NEWBERRY       CLOUDY    29  28  97 NW14G23   29.66R WCI  18
S. S. MARIE    CLOUDY    32  23  69 N12G23    29.61R WCI  23
MUNISING         N/A     31  27  85 N21G29    29.74R WCI  18
$$
MIZ004>006-011>014-085-190800-
CENTRAL UPPER MICHIGAN

CITY           SKY/WX    TMP DP  RH WIND       PRES   REMARKS
MANISTIQUE     CLOUDY    30  23  75 NW16G25   29.71R WCI  19
ESCANABA       FLURRIES  29  22  75 NW12G22   29.78R WCI  19
MENOMINEE      CLOUDY    30  21  69 NW12G17   29.82R WCI  20
SAWYER-GWINN   CLOUDY    25  20  81 NW17G24   29.77R WCI  11
$$
MIZ001>003-009>011-084-190800-
WESTERN UPPER MICHIGAN

CITY           SKY/WX    TMP DP  RH WIND       PRES   REMARKS
IRON MOUNTAIN  FLURRIES  26  17  68 NW17G23   29.78S WCI  13
HOUGHTON       CLOUDY    23  13  65 NW21      29.79S WCI   8
COPPER HARBOR    N/A     27  18  69 N21G31    29.79S WCI  13
IRONWOOD       FLURRIES N/A N/A N/A NW14      29.89R
$$

ABBREVIATIONS USED IN REMARKS
   TC - TEMPERATURE IN CELSIUS
  WCI - WIND CHILL INDEX
   HX - HEAT INDEX
  VSB - VISIBILITY





USA.gov is the U.S. government's official web portal to all federal, state and local government web resources and services.